Location: Kirchberg
(47.4114°N, 9.0398°E)
Time: 22:45:41
(UTC+00:00)

Cosmos 2219 Rocket - Pass Details

Date: 03 March 2021
Orbit: 826 x 848 km, 71.0° (Epoch: 20 April)

Event Time Altitude Azimuth Distance (km) Brightness Sun altitude
Rises 21:08:19 0° 247° (WSW) 3,362 5.6 -38.4°
Reaches altitude 10° 21:11:12 10° 261° (W) 2,435 4.9 -38.8°
Maximum altitude 21:15:41 24° 315° (NW) 1,660 4.2 -39.3°
Drops below altitude 10° 21:20:12 10° 8° (N) 2,455 4.9 -39.9°
Sets 21:23:08 0° 22° (NNE) 3,397 5.6 -40.3°
